Preview of NWS' New Version of Forecast
This preview is not operational and should not be used for support decisions.
Latest weather observations around

Dayton, Dayton-Wright Brothers Airport (KMGY)

Using English Units (Switch to International System of Units)
Date/ Time (EDT) Wind (mph) Vis. (mi) Weather Sky Cond. Temp (°F) Rel. Humidity Wind Chill (°F) Heat Index (°F) Pressure Precip. (in)
Air Dwpt 6 hour Altimeter (inHg) Sea level (inHg) 1 hr 3 hr 6 hr
Max Min
Aug 20 12:53 S 3 10 Mostly Cloudy SCT038 SCT046 BKN060 89 71     55%   95 30.05 30.01      
Aug 20 11:53 SSE 5 10 Clear CLR 89 71     55%   95 30.08 30.04      
Aug 20 10:53 S 5 10 Mostly Clear FEW075 87 72     61%   94 30.08 30.05      
Aug 20 09:53 Calm 10 Clear CLR 83 71     67%   88 30.09 30.06      
Aug 20 08:53 SE 6 10 Clear CLR 80 70     71%   83 30.05 30.02      
Aug 20 07:53 NE 5 10 Clear CLR 76 70     82%   77 30.06 30.03      
Aug 20 06:53 Calm 10 Partly Cloudy SCT044 76 70     82%   77 30.07 30.03      
Aug 20 05:53 Calm 10 Mostly Clear FEW049 74 69     85%   75 30.06 30.03      
Aug 20 04:53 Calm 10 Mostly Cloudy BKN048 74 69     85%   75 30.06 30.03      
Aug 20 03:53 ENE 3 10 Clear CLR 75 69     82%   76 30.05 30.02      
Aug 20 02:53 E 3 10 Clear CLR 77 70     79%   78 30.06 30.03      
Aug 20 01:53 E 6 10 Clear   77 70     79%   78 30.07 30.03      
Aug 20 00:53 E 7 10 Partly Cloudy SCT065 79 69     72%   80 30.07 30.04      
Aug 19 23:53 E 7 10 Partly Cloudy SCT055 80 69     69%   83 30.06 30.03      
Aug 19 22:53 NE 5 10 Mostly Cloudy BKN060 81 70     69%   84 30.06 30.03      
Aug 19 21:53 NNE 5 10 Mostly Cloudy BKN070 81 70     69%   84 30.04 30.01      
Aug 19 20:53 N 6 10 Mostly Clear FEW055 FEW080 86 70     59%   91 30.02 29.99      
Aug 19 19:53 NNW 8 10 Mostly Clear FEW055 89 68     50%   93 30.01 29.98      
Aug 19 18:53 Calm 10 Mostly Clear FEW060 92 67     44%   95 30 29.97      
Aug 19 17:53 NNW 3 10 Mostly Clear FEW095 91 67     45%   94 30.01 29.98      
Aug 19 16:53 Calm 10 Mostly Cloudy BKN050 BKN065 91 67     45%   94 30.01 29.98      
Aug 19 15:53 Calm 10 Mostly Clear FEW046 91 69     49%   96 30.04 30.01      
Aug 19 14:53 S 7 10 Mostly Cloudy BKN042 BKN050 89 69     52%   94 30.05 30.02      
Aug 19 13:53 SSW 5 10 Partly Cloudy SCT037 87 68     53%   91 30.06 30.03      
Aug 19 12:53 5 10 Clear CLR 86 69     57%   90 30.07 30.04      
Aug 19 11:53 S 6 10 Clear CLR 84 68     59%   87 30.07 30.04      
Aug 19 10:53 SSW 8 10 Clear CLR 81 67     62%   83 30.07 30.04      
Aug 19 09:53 S 8 10 Cloudy OVC041 77 67     71%   78 30.07 30.03      
Aug 19 08:53 S 5 10 Cloudy OVC038 75 67     76%   76 30.06 30.03      
Aug 19 07:53 S 5 10 Clear CLR 72 66     82%   73 30.04 30.01      
Aug 19 06:53 Calm 10 Clear CLR 71 65     81%   72 30.01 29.98      
Aug 19 05:53 SSE 3 10 Clear CLR 71 65     81%   72 30 29.97      
Aug 19 04:53 Calm 10 Clear CLR 71 65     81%   72 29.99 29.96      
Aug 19 03:53 Calm 10 Clear CLR 72 66     82%   73 29.99 29.96      
Aug 19 02:53 S 5 10 Clear CLR 72 66     82%   73 30 29.97      
Aug 19 01:53 N 6 10 Mostly Cloudy BKN110 74 65     74%   74 30.01 29.98 0   0
Aug 19 00:53 NNW 5 10 Mostly Cloudy FEW070 BKN100 75 65     71%   76 30.01 29.98 0    
Aug 18 23:53 NNW 5 10 Clear CLR 77 63     62%   77 29.99 29.96      
Aug 18 22:53 WNW 9 10 Mostly Clear FEW100 78 64     62%   79 29.98 29.95      
Aug 18 22:36   10 Mostly Cloudy FEW055 SCT065 BKN100 80 64     58%   82 29.98        
Aug 18 21:53 SW 11 10 Mostly Clear FEW065 86 65     50%   88 29.93 29.9      
Aug 18 20:53 SSW 7 10 Clear CLR 84 65     53%   86 29.9 29.86      
Aug 18 19:53 S 8 10 Clear CLR 86 67     53%   89 29.89 29.86      
Aug 18 18:53 SSE 13 10 Clear CLR 90 67     47%   93 29.89 29.85      
Aug 18 17:53 S 9 10 Mostly Clear FEW060 91 67     45%   94 29.91 29.88      
Aug 18 16:53 SSW 6 10 Clear CLR 92 66     43%   95 29.93 29.89      
Aug 18 15:53 SSW 10 10 Mostly Clear FEW055 91 67     45%   94 29.95 29.91      
Aug 18 14:53 WSW 7 10 Mostly Clear FEW050 91 68     47%   95 29.97 29.94      
Aug 18 13:53 WSW 11 10 Mostly Cloudy SCT047 SCT060 BKN090 90 68     49%   94 29.98 29.95      
Aug 18 12:53 WSW 11 10 Mostly Clear FEW043 91 67     45%   94 29.98 29.95      
Aug 18 11:53 S 13 10 Clear CLR 88 70     55%   93 29.99 29.96      
Aug 18 10:53 S 8 10 Clear CLR 85 72     65%   91 29.99 29.96      
Aug 18 09:53 SSW 7 10 Clear CLR 82 71     69%   86 29.98 29.95      
Aug 18 08:53 S 5 10 Clear CLR 79 70     74%   82 29.98 29.96      
Aug 18 07:53 S 3 10 Mostly Clear FEW003 76 70     82%   77 29.97 29.95      
Aug 18 06:53 SSE 3 10 Clear CLR 74 69     85%   75 29.95 29.92      
Aug 18 05:53 Calm 10 Clear CLR 74 68     82%   75 29.95 29.92      
Aug 18 04:53 S 6 10 Clear CLR 75 69     82%   76 29.95 29.91      
Aug 18 03:53 S 3 10 Clear CLR 76 69     79%   77 29.96 29.93      
Aug 18 02:53 S 7 10 Clear CLR 76 70     82%   77 29.96 29.93      
Aug 18 01:53 S 7 10 Clear CLR 75 69     82%   76 29.95 29.92      
Aug 18 00:53 SSW 5 10 Clear CLR 76 69     79%   77 29.97 29.94      
Aug 17 23:53 S 5 10 Clear CLR 78 70     76%   79 29.97 29.94      
Aug 17 22:53 S 5 10 Clear CLR 78 71     79%   79 29.96 29.93      
Aug 17 21:53 SSE 6 10 Clear CLR 78 71     79%   79 29.95 29.92      
Aug 17 20:53 SSE 5 10 Clear CLR 79 70     74%   82 29.94 29.91      
Aug 17 19:53 S 7 10 Clear CLR 82 69     65%   85 29.95 29.92      
Aug 17 18:53 S 9 10 Clear CLR 83 69     63%   87 29.95 29.92      
Aug 17 17:53 S 11 10 Clear CLR 85 68     57%   88 29.96 29.93      
Aug 17 16:53 S 7 10 Clear CLR 85 68     57%   88 29.96 29.93      
Aug 17 15:53 Calm 10 Clear CLR 85 66     53%   87 29.97 29.94      
Aug 17 14:53 NW 9 10 Mostly Cloudy SCT070 BKN120 84 69     61%   88 30.02 29.99      
Aug 17 13:53 WSW 7 10 Cloudy OVC075 85 66     53%   87 30.03 29.99      
Aug 17 12:53 WSW 7 10 Mostly Cloudy BKN080 84 67     57%   87 30.02 29.99      
Aug 17 10:53 NW 3 10 Clear CLR 82 68     63%   85 30.01 29.98      
May 14 23:53 SSW 7 10 Clear CLR 78 61     56%   78 29.88 29.85      
May 14 13:53 ENE 13 10 Clear CLR 82 62     51%   83 30.01 29.99      
May 14 12:53   10 Partly Cloudy FEW038 SCT046 SCT080 81 64     56%   83 30.03 30.01      
May 14 09:53 W 7 10 Clear CLR 79 65     62%   80 30.01 29.99      
May 12 23:53 ENE 8 10 Clear CLR 67 57     71%     30.04 30.02      
May 12 06:53 SW 11 10 Clear CLR 72 58     61%   72 29.99 29.97      
May 12 04:53 SW 10 10 Clear CLR 73 58     59%   73 29.97 29.94      
May 12 03:53 SW 10 10 Clear CLR 73 59     61%   73 29.97 29.94      
May 11 21:53 SSW 6 10 Clear CLR 76 58     54%   76 29.95 29.92      
May 11 12:53 S 9 10 Clear CLR 79 60     52%   79 30.01 29.99      
Jun 11 15:53 SSW 13 10 Clear   86 61     43%   86 30.1 30.07      
Jun 09 19:53 SSW 13 10 Clear CLR 78 52     40%   77 29.88 29.86      
Jun 09 15:53 SW 9 10 Mostly Clear FEW065 80 51     36%   79 29.9 29.88      
Jun 09 04:53 SSW 3 10 Clear CLR 54 50     86%     29.88 29.87      
Jun 08 07:53 NNE 8 10 Clear CLR 55 51     86%     30.03 30.02      
Jun 08 04:53 NE 5 10 Clear CLR 50 47     89% 48   30 30      
Jun 06 05:53 NNE 6 10 Clear CLR 53 51     93%     29.9 29.88      
Jun 05 23:53 NE 14 10 Mostly Cloudy BKN032 65 58     78%     29.86 29.84      
Jun 05 19:00 ENE 10 10 Mostly Cloudy FEW036 SCT055 BKN070 69 63     81%     29.74        
Jun 05 15:48 S 6 10 Mostly Clear FEW050 70 64     83%     29.73   0    
Notice The following observation data may not be complete
Jun 05 15:11 WSW 8 3 Thunderstorms and Rain SCT040 BKN055 OVC085          %     29.72   0